Location: Mullutu
(58.2769°N, 22.3992°E)
Time: 00:41:32
(UTC+00:00)

Daily predictions for brighter satellites

Satellite Brightness Start Highest point End
(mag) Time Altitude Azimuth Time Altitude Azimuth Time Altitude Azimuth
Cosmos 2218 Rocket 3.9 00:00:39 10° NNW 00:07:01 73° W 00:07:01 73° W
Cosmos 1818 3.8 00:10:55 62° E 00:10:55 62° E 00:15:46 10° NE
Resurs 1-4 Rocket 2.4 00:05:37 10° NNE 00:10:51 58° ESE 00:10:53 58° ESE
Cosmos 2227 Rocket 3.7 00:06:10 10° NW 00:08:31 23° WNW 00:08:31 23° WNW
CZ-2D R/B 2.4 00:08:34 10° NNE 00:13:50 59° ESE 00:13:55 59° ESE
Cosmos 864 Rocket 4.4 00:07:48 10° NNW 00:13:46 70° W 00:13:46 70° W
Timation 1 Rocket 4.3 00:09:51 10° NW 00:15:24 74° WNW 00:15:24 74° WNW
Cosmos 1302 Rocket 4.3 00:20:48 60° NW 00:20:48 60° NW 00:25:45 10° NNE
IRAS Rocket 4.2 00:22:54 71° WNW 00:22:54 71° WNW 00:28:07 10° NNW
SJ 16-02 2.3 00:20:50 10° NNW 00:25:06 46° NE 00:26:08 38° E
Meteor 1-22 4.5 00:21:23 10° NNW 00:26:53 86° ENE 00:27:00 85° ESE
Cosmos 1943 Rocket 3.9 00:24:28 18° WNW 00:27:18 26° NNW 00:31:55 10° NE
Cosmos 1241 Rocket 4.3 00:28:13 72° SSW 00:28:56 85° SE 00:35:28 10° NE
Cosmos 1933 4.4 00:30:52 41° ENE 00:30:52 41° ENE 00:34:18 10° NNE
Cosmos 2221 3.8 00:33:12 33° NNW 00:33:12 33° NNW 00:36:05 10° N
NPP 3.7 00:26:54 10° NNE 00:32:18 68° ESE 00:32:50 64° SE
Lacrosse 5 3.1 00:34:39 31° ESE 00:34:39 31° ESE 00:38:20 10° E
ATLAS 5 CENTAUR R/B 1.9 00:34:44 71° NNE 00:34:44 71° NNE 00:39:27 10° ENE
NOSS 3-4 (A) 3.8 00:27:53 10° WNW 00:34:28 77° NNE 00:41:52 10° ESE
NOSS 3-4 (C) 3.8 00:27:59 10° WNW 00:34:35 77° NNE 00:41:58 10° ESE
SL-08 R/B 3.8 00:34:03 45° ESE 00:35:04 56° ENE 00:39:36 10° NNW
SL-08 R/B 4.4 00:29:09 10° NNW 00:35:33 73° W 00:36:21 65° SW
Cosmos 2181 Rocket 3.9 00:37:22 66° WSW 00:38:01 71° WNW 00:44:18 10° N
Meteor 1-20 Rocket 4.0 00:34:36 10° NNW 00:40:07 84° WSW 00:40:25 79° SSW
AQUA 3.9 00:36:22 10° NNE 00:41:09 67° ESE 00:41:16 67° ESE
ARIANE 5 R/B 4.2 00:38:07 10° NNE 00:42:30 28° E 00:45:10 18° SE
NOSS 2-1 (E) 4.0 00:44:06 51° NNE 00:44:06 51° NNE 00:47:42 10° ENE
SL-24 R/B - RUBIN 2 4.5 00:42:13 61° SSW 00:43:27 79° SE 00:50:13 10° NE
COSMOS 2455 4.2 00:38:04 10° WNW 00:43:40 37° N 00:49:16 10° ENE
Cosmos 1606 3.7 00:45:51 44° NNE 00:45:51 44° NNE 00:48:33 10° NNE
H-2A R/B 4.1 00:44:14 10° ESE 00:48:05 29° NE 00:51:59 10° N
SL-19 R/B 4.2 00:48:05 67° SW 00:48:21 69° WSW 00:54:10 10° NNW
Genesis I 4.0 00:49:32 48° NNE 00:49:32 48° NNE 00:52:36 10° NE
ATLAS CENTAUR R/B 3.9 00:34:24 10° W 00:51:50 86° S 00:57:53 10° E
Cosmos 2369 4.1 00:51:28 46° SSE 00:52:40 55° ESE 00:58:17 10° NE
IRS-1D 3.9 00:48:24 10° NNE 00:53:44 62° ESE 00:55:05 46° SSE
SL-19 R/B 4.2 00:50:30 10° NNE 00:55:37 59° WNW 00:55:58 58° W
USA 305 4.5 00:58:02 25° SE 00:58:02 25° SE 01:00:34 10° E
Cosmos 2297 Rocket 4.4 00:53:02 10° WNW 00:53:25 11° WNW 00:53:25 11° WNW
ATLAS 2AS CENTAUR R/B 2.9 00:50:29 10° WNW 00:58:19 82° NNE 01:05:34 10° ESE
CBERS-1 4.3 00:53:25 10° NNE 00:58:31 62° ESE 00:59:46 47° SSE
Cosmos 972 Rocket 4.3 00:59:28 48° SSE 01:00:23 57° ESE 01:05:22 10° NNE
USA 306 4.4 01:02:14 27° SE 01:02:14 27° SE 01:04:55 10° E
Cosmos 220 Rocket 4.0 01:01:56 70° NNW 01:01:56 70° NNW 01:05:57 10° NNE
ADEOS II 2.3 00:57:37 10° NNE 01:02:53 65° ESE 01:04:23 45° SSE
SL-16 R/B 3.3 01:04:18 34° W 01:04:18 34° W 01:09:14 10° NNW
Cosmos 1470 Rocket 3.8 00:59:30 10° NNW 01:03:16 59° NW 01:03:16 59° NW
Cosmos 990 Rocket 4.1 01:00:17 10° NNW 01:05:30 74° ENE 01:10:43 10° SE
IDEFIX/ARIANE 42P 4.0 01:01:46 10° NNE 01:06:36 35° E 01:10:25 15° SSE
Cosmos 1782 3.5 01:06:41 44° ESE 01:07:14 48° E 01:11:09 10° NNE
IRS P6 4.5 01:04:40 10° NNE 01:09:57 84° WNW 01:11:00 59° SSW
Cosmos 2369 Rocket 4.0 01:07:25 13° WNW 01:11:13 25° NNW 01:15:51 10° NE
Meteor 1-28 Rocket 4.0 01:13:48 41° NNW 01:13:48 41° NNW 01:16:20 10° NNW
Cosmos 1697 Rocket 2.6 01:14:51 51° SSW 01:16:18 80° SE 01:21:57 10° NE
Helios 1B rocket 4.2 01:15:19 10° N 01:18:05 21° NW 01:18:05 21° NW
Iridium 2 4.5 01:18:12 39° SE 01:19:01 47° E 01:22:40 10° NNE
Cosmos 2263 Rocket 2.1 01:14:29 10° NW 01:20:05 63° WSW 01:25:40 10° SSE
Meteor 1-11 Rocket 4.5 01:14:46 10° NNW 01:20:31 55° ENE 01:26:05 10° SE
Cosmos 2360 4.3 01:20:50 43° SSW 01:22:43 72° ESE 01:28:28 10° NE
Cosmos 1980 Rocket 2.6 01:20:37 35° S 01:22:48 57° ESE 01:28:21 10° NE
Celestis-02/Orion 38 4.4 01:18:23 10° SE 01:23:35 82° SW 01:28:45 10° NW
USA 234 3.3 01:18:11 10° SE 01:24:37 57° SSW 01:28:12 27° W
Cosmos 1844 Rocket 3.4 01:19:08 10° NW 01:24:41 55° NE 01:30:15 10° ESE
Cosmos 2278 Rocket 4.1 01:20:49 10° NW 01:25:45 29° NNE 01:30:40 10° E
Cosmos 389 Rocket 2.9 01:26:29 53° SE 01:26:49 56° E 01:30:22 10° NNE
Cosmos 1821 Rocket 4.2 01:21:03 10° NNW 01:27:06 50° W 01:28:33 42° SW
Cosmos 1151 Rocket 2.9 01:28:20 64° W 01:28:37 67° WNW 01:33:00 10° N
Cosmos 1515 Rocket 3.6 01:27:57 50° S 01:29:05 78° E 01:33:32 10° NNE
Cosmos 1844 4.5 01:24:16 10° NW 01:29:45 52° NE 01:35:12 10° ESE
USA 307 3.7 01:29:59 37° SSE 01:29:59 37° SSE 01:33:48 10° E
Cosmos 2322 Rocket 4.2 01:27:43 10° SSE 01:32:06 24° ESE 01:36:31 10° NE
Cosmos 1934 Rocket 3.8 01:27:04 10° NNW 01:33:04 68° W 01:36:29 27° S
USA 308 3.6 01:33:11 37° SSE 01:33:11 37° SSE 01:37:08 10° E
Cosmos 1500 3.1 01:29:27 10° NNW 01:33:20 89° ENE 01:33:56 62° SSE
Cosmos 44 3.9 01:32:09 35° S 01:33:26 44° SE 01:37:57 10° ENE
CZ-4B R/B 3.4 01:28:53 10° NNE 01:33:59 78° WNW 01:35:39 44° SSW
Cosmos 1656 3.9 01:32:51 42° W 01:34:28 58° NW 01:40:00 10° NE
Cosmos 1328 Rocket 3.6 01:35:10 57° WSW 01:35:43 64° WNW 01:40:09 10° N
NOSS 2-1 (C) 4.1 01:35:35 35° NW 01:36:36 44° N 01:40:59 10° ENE
CZ-2D R/B 4.3 01:34:19 10° NNE 01:38:26 49° E 01:40:59 22° SSE
Cosmos 1666 3.4 01:34:42 10° N 01:38:29 54° ENE 01:42:13 10° SSE
Cosmos 1933 Rocket 3.8 01:36:35 10° NNW 01:40:30 46° W 01:40:30 46° W
NOSS 2-1 (D) 4.2 01:40:30 33° NW 01:41:41 43° N 01:46:05 10° ENE
Meteor 1-4 Rocket 4.3 01:39:32 14° SSE 01:41:54 29° E 01:45:02 10° NNE
SL-16 R/B 3.7 01:38:13 10° SSE 01:43:08 31° ESE 01:48:05 10° NE
IRS-1C 4.1 01:37:58 10° NNE 01:43:22 85° ESE 01:46:10 29° SSW
Cosmos 1238 Rocket 4.0 01:40:47 10° NNW 01:47:18 60° W 01:51:14 23° SSW
Cosmos 1812 3.6 01:46:29 20° SSE 01:48:49 47° E 01:52:34 10° NNE
Cosmos 1536 3.6 01:45:54 10° N 01:49:56 54° ENE 01:53:56 10° SSE
Cosmos 1898 Rocket 3.4 01:44:54 10° NW 01:50:07 66° WSW 01:55:21 10° SSE
Resurs 1-4 Rocket 2.9 01:45:45 10° N 01:50:32 36° WNW 01:51:58 30° W
CZ-4C R/B 2.9 01:44:20 10° WNW 01:50:50 76° NNE 01:58:39 10° ESE
Cosmos 1733 Rocket 4.1 01:46:40 10° N 01:50:53 45° ENE 01:55:04 10° SE
CZ-2C R/B 4.3 01:46:31 10° NNE 01:51:02 30° E 01:55:34 10° SSE
CZ-2D R/B 2.9 01:48:56 10° N 01:53:43 35° NW 01:55:14 29° W
Cosmos 1818 4.0 01:51:33 29° W 01:54:09 53° NNW 01:59:32 10° NE
Meteor 1-26 Rocket 4.1 01:52:08 33° SSW 01:54:34 70° WNW 02:00:02 10° NNE
ASTEX 1 3.3 01:51:02 10° N 01:56:03 81° W 01:59:09 24° SSW
MSX 4.4 01:50:49 10° NNE 01:56:33 57° ESE 02:02:13 10° S
Cosmos 858 Rocket 4.3 01:52:40 10° NNW 01:57:53 75° WSW 02:03:04 10° SSE
Cosmos 1869 Rocket 3.4 01:56:34 10° NNW 02:00:53 65° W 02:03:44 20° S
IRIDIUM 104 4.3 01:56:35 10° N 02:01:52 87° E 02:07:06 10° S
SJ 16-02 2.0 01:59:36 10° NW 02:02:59 33° W 02:02:59 33° W
Nadezhda 3 Rocket 4.2 02:01:33 30° SW 02:04:25 51° WNW 02:10:26 10° N
Cosmos 1153 Rocket 4.5 01:58:46 10° NNW 02:05:13 85° W 02:11:34 10° S
Cosmos 1605 Rocket 4.0 01:59:17 10° NNW 02:05:36 62° W 02:11:54 10° S
Meteor 1-5 Rocket 4.1 02:01:48 10° NNW 02:07:02 58° W 02:12:19 10° S
Cosmos 1933 4.3 02:06:43 29° WNW 02:07:06 30° WNW 02:10:44 10° N
IRIDIUM 114 4.2 02:05:45 10° N 02:11:01 82° W 02:16:14 10° S
Cosmos 1937 Rocket 3.4 02:06:14 10° NW 02:11:19 61° WSW 02:16:23 10° SSE
Cosmos 1943 Rocket 4.2 02:08:26 10° NW 02:12:51 23° N 02:17:13 10° ENE
Cosmos 2228 Rocket 3.0 02:10:30 25° SSW 02:13:05 79° WNW 02:17:34 10° NNE
SL-08 R/B 4.1 02:13:02 29° W 02:13:11 29° W 02:17:14 10° NNW
Landsat 5 3.5 02:09:16 10° S 02:13:45 70° WSW 02:18:11 10° NNW
RESURS DK-1 4.2 02:12:22 10° NNW 02:16:08 31° NNE 02:19:53 10° E
Lacrosse 5 1.9 02:13:50 30° WSW 02:16:19 68° SSE 02:21:22 10° E
USA 32 4.0 02:13:24 10° N 02:18:42 89° W 02:23:58 10° S
ATLAS 5 CENTAUR R/B 2.6 02:16:15 19° WNW 02:19:27 48° N 02:24:47 10° ENE
Meteor 1-10 Rocket 4.4 02:14:12 10° S 02:20:03 80° ESE 02:26:01 10° NNE
IRIDIUM 103 4.2 02:14:56 10° N 02:20:09 71° W 02:25:21 10° S
ARIANE 5 R/B 2.5 02:16:58 10° NNE 02:22:04 66° WNW 02:25:30 20° SW
IRS-P3 4.3 02:17:17 10° NNE 02:22:30 54° WNW 02:25:43 23° SW
Cosmos 1125 Rocket 4.3 02:17:22 10° NNW 02:22:37 55° NE 02:27:48 10° SE
Cosmos 972 4.3 02:20:12 25° SW 02:23:05 70° WNW 02:28:02 10° NNE
H-2A R/B 2.1 02:19:25 10° S 02:23:49 59° WSW 02:28:18 10° NNW
Meteor 2-6 Rocket 4.3 02:18:34 12° SSW 02:23:53 85° WNW 02:29:52 10° NNE
CZ-4C R/B 3.1 02:21:21 16° S 02:24:01 50° WSW 02:27:27 10° NNW
NOSS 3-4 (A) 3.9 02:18:48 10° WNW 02:25:19 50° SW 02:32:31 10° SSE
NOSS 3-4 (C) 3.9 02:18:55 10° WNW 02:25:25 50° SW 02:32:37 10° SSE
Cosmos 1743 3.5 02:22:22 10° N 02:26:08 53° ENE 02:29:52 10° SSE
Cosmos 2278 3.8 02:23:25 24° SW 02:26:55 66° NW 02:32:38 10° NE
ERBS 3.6 02:25:39 22° SSW 02:27:02 31° SSE 02:30:03 10° E
Cosmos 2150 Rocket 4.3 02:22:14 10° NNW 02:27:45 76° ENE 02:33:11 10° SE
USA 267 3.9 02:22:30 10° ENE 02:28:49 48° SSE 02:34:08 15° SW
CZ-2C R/B 2.7 02:25:33 10° NNE 02:29:21 87° ESE 02:32:42 13° SSW
Cosmos 1763 Rocket 4.0 02:24:36 10° SSW 02:29:50 62° ESE 02:35:04 10° NE
COSMOS 2455 3.4 02:24:39 10° NW 02:30:39 60° NNE 02:36:38 10° ESE
SL-4 R/B 4.2 02:27:59 12° SSW 02:31:00 21° SSE 02:34:33 10° ESE
ERS-2 2.0 02:27:41 10° SSE 02:31:22 73° WSW 02:35:03 10° NNW
IRS-1D 4.4 02:27:58 10° N 02:32:46 34° NW 02:35:33 21° WSW
NOSS 2-1 (E) 4.5 02:31:25 15° WNW 02:34:27 43° N 02:39:19 10° ENE
USA 305 3.3 02:34:11 25° WSW 02:36:20 47° S 02:40:26 10° ESE
Cosmos 1725 Rocket 4.4 02:30:18 10° N 02:36:30 66° ENE 02:42:38 10° SSE
GENESIS II 4.5 02:34:24 21° SW 02:36:58 68° SE 02:40:59 10° ENE
Cosmos 2369 4.2 02:33:24 21° WSW 02:37:02 48° NW 02:42:37 10° NE
Cosmos 1544 4.1 02:33:41 10° N 02:37:13 48° ENE 02:40:42 10° SSE
USA-17 4.4 02:35:28 15° WNW 02:38:09 83° SSW 02:42:16 10° SE
IRIDIUM 106 4.4 02:33:20 10° NNW 02:38:26 54° W 02:43:29 10° SSW
NOSS 3-3 (A) 4.2 02:34:42 17° SW 02:39:39 72° SE 02:46:40 10° ENE
NOSS 3-3 (C) 4.2 02:34:50 16° SW 02:39:45 72° SE 02:46:45 10° ENE
USA 306 3.3 02:38:23 23° WSW 02:40:42 47° S 02:44:48 10° ESE
ADEOS II 3.0 02:37:41 10° N 02:42:19 32° NW 02:45:19 18° WSW
ADEOS Rocket 2.9 02:37:10 10° SSE 02:43:37 75° WSW 02:49:28 10° NNW
Cosmos 1782 4.0 02:42:19 21° W 02:43:47 27° WNW 02:47:16 10° N
Cosmos 2100 Rocket 4.0 02:38:23 10° NNW 02:44:46 72° W 02:51:06 10° S
IDEFIX/ARIANE 42P 2.7 02:41:18 10° NNE 02:46:29 56° WNW 02:51:13 12° SW
PAYLOAD A 4.0 02:42:53 10° NNE 02:47:38 76° ESE 02:52:20 10° SSW
Cosmos 1975 4.0 02:44:39 10° N 02:48:35 46° ENE 02:52:27 10° SE
Cosmos 540 Rocket 4.4 02:43:37 10° S 02:48:35 50° ESE 02:53:36 10° NE
ATLAS 2AS CENTAUR R/B 3.1 02:41:49 10° WNW 02:48:59 46° SW 02:55:37 10° SSE
Cosmos 1727 Rocket 4.0 02:45:03 10° SSW 02:51:24 77° WNW 02:57:45 10° NNE
Cosmos 1459 Rocket 3.9 02:45:54 10° NNW 02:51:59 69° W 02:57:59 10° S
CZ-4B R/B 1.2 02:49:14 10° SSE 02:52:29 78° WSW 02:55:50 10° NNW
Cosmos 1802 Rocket 3.9 02:47:29 10° NNW 02:53:41 79° W 02:59:56 10° S
COSMO-SKYMED 1 3.4 02:51:26 10° SE 02:55:40 54° ENE 02:59:57 10° N
Cosmos 921 Rocket 3.2 02:52:55 17° SW 02:55:58 49° WNW 03:00:06 10° NNE
Cosmos 2360 Rocket 3.2 02:51:17 10° S 02:56:40 46° ESE 03:02:04 10° NE
Cosmos 2369 Rocket 4.1 02:52:24 10° NW 02:57:05 25° NNE 03:01:46 10° ENE
NOSS 7 (E) 4.5 02:56:18 10° WNW 02:59:35 76° SW 03:03:43 10° SE
Cosmos 1697 Rocket 3.5 02:56:36 15° W 03:00:48 37° NNW 03:06:02 10° NE
Cosmos 389 Rocket 4.1 03:00:21 16° W 03:01:51 21° WNW 03:04:38 10° N
Cosmos 468 Rocket 4.0 02:57:38 10° SW 03:02:55 79° WNW 03:08:13 10° NNE
Cosmos 2263 Rocket 3.6 02:59:44 10° WNW 03:02:59 16° W 03:06:13 10° SW
Cosmos 1782 Rocket 4.5 02:59:07 10° N 03:03:33 54° ENE 03:07:56 10° SSE
Meteor 1-11 Rocket 4.3 02:58:30 10° NNW 03:03:48 37° W 03:08:56 10° SSW
Cosmos 1484 Rocket 4.1 03:00:47 10° NNE 03:04:38 45° E 03:08:30 10° S
Cosmos 1908 Rocket 3.7 03:00:32 10° NNW 03:05:02 85° ENE 03:09:31 10° SSE
Cosmos 1980 Rocket 2.7 03:02:24 14° WSW 03:07:02 46° NW 03:12:30 10° NE
SAR-Lupe-4 3.5 03:04:58 10° S 03:08:33 64° WSW 03:12:09 10° NNW
Cosmos 1844 Rocket 3.0 03:03:13 10° NW 03:08:34 45° WSW 03:13:54 10° S
USA 234 4.1 03:03:14 10° S 03:08:37 27° SW 03:14:01 10° WNW
USA 307 3.4 03:06:10 15° WSW 03:09:29 48° S 03:13:36 10° ESE
Cosmos 44 Rocket 4.4 03:05:23 10° SSW 03:09:53 43° SE 03:14:33 10° ENE
Cosmos 2278 Rocket 2.6 03:05:08 10° NW 03:10:48 68° NE 03:16:28 10° SE
USA 308 3.4 03:09:22 14° WSW 03:12:49 48° S 03:16:55 10° ESE
Cosmos 2123 Rocket 4.5 03:06:56 10° S 03:13:08 67° E 03:19:26 10° NNE
Cosmos 1666 4.0 03:10:50 10° NW 03:13:46 21° W 03:16:41 10° SW
Cosmos 1844 3.9 03:08:35 10° NW 03:13:56 48° WSW 03:19:14 10° S
CZ-2D R/B 4.4 03:10:13 10° N 03:13:56 31° WNW 03:17:38 11° WSW
Cosmos 44 3.4 03:10:35 13° WSW 03:14:35 61° NNW 03:19:26 10° NE
Cosmos 2322 Rocket 2.3 03:09:47 10° SSW 03:15:29 87° SE 03:21:16 10° NE
Meteor 1-4 Rocket 3.2 03:13:45 11° SW 03:16:52 34° WNW 03:20:11 10° N
Meteor 1-31 Rocket 3.9 03:13:29 10° NNE 03:17:13 47° E 03:20:57 10° S
Okean 1 4.1 03:13:51 10° S 03:17:50 58° E 03:21:50 10° NNE
Intercosmos 25 3.4 03:15:49 10° S 03:19:09 63° E 03:22:23 10° NNE
Meteor 1-27 Rocket 3.9 03:14:05 10° SSW 03:19:59 66° WNW 03:25:51 10° NNE
Meteor 2-9 Rocket 4.2 03:14:25 10° NNW 03:20:02 88° WSW 03:25:26 10° SSE
Cosmos 1707 Rocket 3.8 03:16:21 10° SW 03:20:34 49° WNW 03:24:51 10° N
Cosmos 1812 3.9 03:21:36 10° WSW 03:24:50 25° WNW 03:28:07 10° N
CZ-3B R/B 3.5 03:21:32 11° W 03:25:25 70° S 03:42:09 10° E
Cosmos 1536 4.0 03:22:48 10° NW 03:26:05 24° W 03:29:21 10° SW
SL-16 R/B 2.2 03:21:11 10° SW 03:26:52 74° NW 03:32:36 10° NE
SAR-Lupe-1 4.4 03:24:09 10° S 03:27:36 44° W 03:31:05 10° NNW
NOSS 2-1 (C) 4.4 03:23:48 10° WNW 03:27:44 51° NNE 03:33:00 10° E
Cosmos 2173 Rocket 4.4 03:22:20 10° NNW 03:28:16 44° W 03:34:13 10° SSW
Cosmos 1733 Rocket 3.8 03:24:45 10° NNW 03:28:34 30° W 03:32:21 10° SSW
Cosmos 1437 Rocket 2.9 03:24:57 10° S 03:28:46 77° ESE 03:32:41 10° NNE
Resurs 1-4 Rocket 4.1 03:27:01 10° NNW 03:29:03 12° NW 03:31:05 10° WNW
CZ-4B R/B 4.4 03:25:46 10° NNE 03:29:14 37° E 03:32:36 10° SSE
CZ-2C R/B 2.6 03:24:33 10° NNE 03:29:37 63° WNW 03:34:44 10° SSW
ATLAS CENTAUR R/B 3.4 03:22:33 10° WNW 03:32:08 43° SW 03:36:09 10° SSE
CZ-2D R/B 4.2 03:30:24 10° N 03:32:25 12° NNW 03:34:27 10° NW
NOSS 2-1 (D) 4.4 03:28:51 10° WNW 03:32:49 53° NNE 03:38:07 10° E
Cosmos 2237 4.4 03:28:25 10° SSW 03:34:08 78° ESE 03:39:52 10° NE
Cosmos 2285 Rocket 4.0 03:27:59 10° NNW 03:34:24 75° WSW 03:40:49 10° SSE
ALOS 2.5 03:30:13 10° NNE 03:34:56 78° ESE 03:39:36 10° SSW
MSX 4.4 03:32:49 10° N 03:38:10 40° WNW 03:43:28 10° SW
CZ-4C R/B 3.1 03:32:49 10° WNW 03:39:28 54° SW 03:47:15 10° SSE
Cosmos 2242 Rocket 3.8 03:36:10 10° S 03:40:35 81° E 03:45:02 10° NNE
PSLV R/B 4.0 03:39:32 10° N 03:43:32 42° WNW 03:47:29 10° SW
SKYMED 2 3.6 03:39:25 10° S 03:43:44 64° WSW 03:48:05 10° NNW
Cosmos 2219 Rocket 3.6 03:39:58 10° S 03:45:17 43° ESE 03:50:39 10° NE
